Weather in Sabarka

Russia / Perm Krai     57°10′34″N   57°12′32″E
temp.,
°C
wind,
m/s
gust,
m/s
humid.,
%
clouds,
%
prec.,
mm/h
press.,
hPa
HPBL,
m
3 march, wed
wed323:00−8ssw71590100 0.8 998464
02:00−8ssw7139198 0.0 997403
05:00−6sw5109599 0.3 996295
08:00−5wsw599697 0.5 996299
11:00−4wsw589498 0.8 997378
14:00−2wsw579399 0.2 997654
17:00−2wsw5890100 0.6 997641
20:00−4sw499595 0.4 997266
4 march, thu
thu423:00−5wsw369697 1.5 998125
02:00−7wnw4796100 0.5 997229
05:00−9w479598 0.8 997199
08:00−12wsw599585 0.1 998209
11:00−10sw699490 0.1 999339
14:00−7sw6109199 0.1 997621
17:00−6ssw71189100 0.1 996677
20:00−8ssw61391100 0.0 995527
5 march, fri
fri523:00−7s51295100 0.3 993641
02:00−6se3796100 1.6 990354
05:00−6w3696100 3.0 992138
08:00−10wsw479587 0.0 995135
11:00−5wsw7119089 0.4 997770
14:00−5wsw7987100 0.1 998787
17:00−5wsw4787100 0.1 1000689
20:00−11w479281 0.0 100196
6 march, sat
sat623:00−16w479646 0.0 1004103
02:00−18w499738 0.0 1006142
05:00−20wsw599732 0.0 1009143
08:00−20wsw59980 0.0 1010171
11:00−15wsw589441 0.1 1010339
14:00−10wsw5890100 0.2 1010658
17:00−9sw5890100 0.4 1010736
20:00−12sw499487 0.1 1009215
7 march, sun
sun723:00−14sw489685 0.1 1008165
02:00−16s239689 0.1 100628
05:00−15s239594 0.1 100544
08:00−16sw2295100 0.1 100525
11:00−12wsw349298 0.3 1005305
14:00−10w4589100 0.2 1006667
17:00−12w5687100 0.4 1007660
20:00−18wsw479595 0.0 100897